CZ-4 DEB, 27806

Orbit data source: Space-Track

CZ-4 DEB, 27806 is space debris in SSO originally from a launch on Thu, 14 Oct 1999 UTC launched from the Taiyaun Space Center, China (TSC). Debris objects in space refer to the collection of defunct objects orbiting the Earth. Examples of debris include non-operational satellites, rocket bodies, and fragments generated from explosions, collisions, or faulty payload assembly.

Loading next visibility...
Identifier
27806, 1999-057MW
Orbit
SSO
Country
Flag of CNCN / PRC
Related business
Manufacturer
Unknown
Mission
Spacecraft
Bus & Motor
Unknown
Mass
Unknown
Launch date (UTC)
1999-10-14 (26 years ago)
Launch vehicle
Unknown
Launch site
Taiyaun Space Center, China (TSC)
Object type
Payload
Rocket body
Debris
Shape & HBR
Unknown shape, 0.1 m
Radar Cross Section
Small (<0.1 m²)

Expand to show TLE details & history
Last TLE update: 3 days ago

TLE from 3 days ago
0 CZ-4 DEB
1 27806U 99057MW  26033.87582162  .00000149  00000-0  68145-4 0  9998
2 27806  98.9071  62.4112 0109599 125.0512 236.1011 14.32036438263193
Epoch: 2026-02-02T21:01Z
TLE epoch observation values (Epoch: 2026-02-02T21:01:10.987Z)
Latitude
-0.00006°
Longitude
-25.9494°
Altitude
832.239 km
Speed
7.414 km/s
True Right ascension
04h 09m 38s
True Declination
0° 00' 00"
Sunlit
Object was in daylight at epoch
Visualization orbit readout
Latitude
Unknown
Longitude
Unknown
Altitude
Unknown
Speed
Unknown
Apparent Right ascension
Unknown
Apparent Declination
Unknown
Sunlit
N/A
Visualization observer readout
Local Sidereal Time
04:38:37
Azimuth
Unknown
Elevation
Unknown
Doppler factor
Unknown
Orbital elements
Apogee altitude
860.559 km
Perigee altitude
703.608 km
Semi-major axis
7,160.221 km
Eccentricity
0.01096
Inclination
98.9071°
RAAN
62.4112°
Arg. of periapsis
125.0512°
True anomaly
235.06663°
Mean anomaly
236.1011°
Eccentric anomaly
235.58307°
Mean motion
3.58223 °/min
Orbital period
100.5 mins
BSTAR
0.000068145
Loading maneuver chart data...
Computing Atmospheric mass density...
Loading historical data...
Loading historical data...
Loading historical data...
Loading historical data...
Loading historical data...
Loading historical data...
Loading historical data...

Documentation

Showing up to 5 results
|